owner,sensor,date,latitude,longitude,vertical_datum,direction_of_sea_water_velocity,sea_water_speed,upward_sea_water_velocity,qcFlag 
TABS,ioos:station:wmo:42049:1,2013-06-01T00:00:00Z,28.3507,-96.0058,2.0,121.4942985,7.963020784,-99999.0,'11133222,11111222,99999999' 
TABS,ioos:station:wmo:42049:1,2013-06-01T00:30:00Z,28.3507,-96.0058,2.0,143.898187,17.00552851,-99999.0,'11111222,11111222,99999999' 
TABS,ioos:station:wmo:42049:1,2013-06-01T01:00:00Z,28.3507,-96.0058,2.0,32.86518648,20.41785738,-99999.0,'11111222,11111222,99999999' 
TABS,ioos:station:wmo:42049:1,2013-06-01T01:30:00Z,28.3507,-96.0058,2.0,2.282131355,21.0967296,-99999.0,'11111222,11111222,99999999' 
TABS,ioos:station:wmo:42049:1,2013-06-01T02:00:00Z,28.3507,-96.0058,2.0,104.057848,19.26703143,-99999.0,'11111222,11111222,99999999' 
TABS,ioos:station:wmo:42049:1,2013-06-01T02:30:00Z,28.3507,-96.0058,2.0,143.4664676,3.746064602,-99999.0,'11133222,11111222,99999999' 
TABS,ioos:station:wmo:42049:1,2013-06-01T03:00:00Z,28.3507,-96.0058,2.0,43.51734778,13.39001494,-99999.0,'11111222,11111222,99999999' 
TABS,ioos:station:wmo:42049:1,2013-06-01T03:30:00Z,28.3507,-96.0058,2.0,17.82040654,14.4429533,-99999.0,'11111222,11111222,99999999' 
TABS,ioos:station:wmo:42049:1,2013-06-01T04:00:00Z,28.3507,-96.0058,2.0,102.6744001,14.08317081,-99999.0,'11111222,11111222,99999999' 
TABS,ioos:station:wmo:42049:1,2013-06-01T04:30:00Z,28.3507,-96.0058,2.0,74.77828659,19.57681537,-99999.0,'11111222,11111222,99999999' 
TABS,ioos:station:wmo:42049:1,2013-06-01T05:00:00Z,28.3507,-96.0058,2.0,65.09211029,46.70415934,-99999.0,'11111222,11111222,99999999' 
TABS,ioos:station:wmo:42049:1,2013-06-01T05:30:00Z,28.3507,-96.0058,2.0,330.5499456,24.61005689,-99999.0,'11111222,11111222,99999999' 
TABS,ioos:station:wmo:42049:1,2013-06-01T06:00:00Z,28.3507,-96.0058,2.0,98.92662781,12.30909014,-99999.0,'11111222,11111222,99999999' 
TABS,ioos:station:wmo:42049:1,2013-06-01T06:30:00Z,28.3507,-96.0058,2.0,126.5935876,10.78612535,-99999.0,'11111222,11111222,99999999' 
TABS,ioos:station:wmo:42049:1,2013-06-01T07:00:00Z,28.3507,-96.0058,2.0,133.9990486,23.47952725,-99999.0,'11111222,11111222,99999999' 
TABS,ioos:station:wmo:42049:1,2013-06-01T07:30:00Z,28.3507,-96.0058,2.0,276.5615053,3.150634857,-99999.0,'11133222,11111222,99999999' 
TABS,ioos:station:wmo:42049:1,2013-06-01T08:00:00Z,28.3507,-96.0058,2.0,79.89072515,53.72408212,-99999.0,'11111222,11111222,99999999' 
TABS,ioos:station:wmo:42049:1,2013-06-01T08:30:00Z,28.3507,-96.0058,2.0,56.23797754,22.06044424,-99999.0,'11111222,11111222,99999999' 
TABS,ioos:station:wmo:42049:1,2013-06-01T09:00:00Z,28.3507,-96.0058,2.0,68.56520294,32.5084912,-99999.0,'11111222,11111222,99999999' 
TABS,ioos:station:wmo:42049:1,2013-06-01T09:30:00Z,28.3507,-96.0058,2.0,132.0642282,13.25443322,-99999.0,'11111222,11111222,99999999' 
TABS,ioos:station:wmo:42049:1,2013-06-01T10:00:00Z,28.3507,-96.0058,2.0,102.0467614,28.36466111,-99999.0,'11111222,11111222,99999999' 
TABS,ioos:station:wmo:42049:1,2013-06-01T10:30:00Z,28.3507,-96.0058,2.0,31.37248943,36.55413793,-99999.0,'11111222,11111222,99999999' 
TABS,ioos:station:wmo:42049:1,2013-06-01T11:00:00Z,28.3507,-96.0058,2.0,116.4068702,22.68723209,-99999.0,'11111222,11111222,99999999' 
TABS,ioos:station:wmo:42049:1,2013-06-01T11:30:00Z,28.3507,-96.0058,2.0,295.9895937,3.56,-99999.0,'11133222,11111222,99999999' 
TABS,ioos:station:wmo:42049:1,2013-06-01T12:00:00Z,28.3507,-96.0058,2.0,81.93687035,48.40856329,-99999.0,'11111222,11111222,99999999' 
TABS,ioos:station:wmo:42049:1,2013-06-01T12:30:00Z,28.3507,-96.0058,2.0,55.7132032,32.48500577,-99999.0,'11111222,11111222,99999999' 
TABS,ioos:station:wmo:42049:1,2013-06-01T13:00:00Z,28.3507,-96.0058,2.0,84.36443363,31.16061135,-99999.0,'11111222,11111222,99999999' 
TABS,ioos:station:wmo:42049:1,2013-06-01T13:30:00Z,28.3507,-96.0058,2.0,70.22543014,49.77520668,-99999.0,'11111222,11111222,99999999' 
TABS,ioos:station:wmo:42049:1,2013-06-01T14:00:00Z,28.3507,-96.0058,2.0,51.9492749,52.01504782,-99999.0,'11111222,11111222,99999999' 
TABS,ioos:station:wmo:42049:1,2013-06-01T14:30:00Z,28.3507,-96.0058,2.0,164.5152858,10.0757233,-99999.0,'11111222,11111222,99999999' 
TABS,ioos:station:wmo:42049:1,2013-06-01T15:00:00Z,28.3507,-96.0058,2.0,246.5940569,26.53326403,-99999.0,'11111222,11111222,99999999' 
TABS,ioos:station:wmo:42049:1,2013-06-01T15:30:00Z,28.3507,-96.0058,2.0,82.27633585,31.10216713,-99999.0,'11111222,11111222,99999999' 
TABS,ioos:station:wmo:42049:1,2013-06-01T16:00:00Z,28.3507,-96.0058,2.0,4.896891035,6.794799482,-99999.0,'11133222,11111222,99999999' 
TABS,ioos:station:wmo:42049:1,2013-06-01T16:30:00Z,28.3507,-96.0058,2.0,34.59241825,19.72758475,-99999.0,'11111222,11111222,99999999' 
TABS,ioos:station:wmo:42049:1,2013-06-01T17:00:00Z,28.3507,-96.0058,2.0,279.9774139,15.00694506,-99999.0,'11111222,11111222,99999999' 
TABS,ioos:station:wmo:42049:1,2013-06-01T17:30:00Z,28.3507,-96.0058,2.0,304.4200908,6.315773903,-99999.0,'11133222,11111222,99999999' 
TABS,ioos:station:wmo:42049:1,2013-06-01T18:00:00Z,28.3507,-96.0058,2.0,203.0457881,25.64686336,-99999.0,'11111222,11111222,99999999' 
TABS,ioos:station:wmo:42049:1,2013-06-01T18:30:00Z,28.3507,-96.0058,2.0,312.3936224,22.23322963,-99999.0,'11111222,11111222,99999999' 
TABS,ioos:station:wmo:42049:1,2013-06-01T19:00:00Z,28.3507,-96.0058,2.0,19.64049453,19.99318134,-99999.0,'11111222,11111222,99999999' 
TABS,ioos:station:wmo:42049:1,2013-06-01T19:30:00Z,28.3507,-96.0058,2.0,329.1148793,10.03267661,-99999.0,'11111222,11111222,99999999' 
TABS,ioos:station:wmo:42049:1,2013-06-01T20:00:00Z,28.3507,-96.0058,2.0,14.67042563,42.96054003,-99999.0,'11111222,11111222,99999999' 
TABS,ioos:station:wmo:42049:1,2013-06-01T20:30:00Z,28.3507,-96.0058,2.0,16.19992884,26.91881498,-99999.0,'11111222,11111222,99999999' 
TABS,ioos:station:wmo:42049:1,2013-06-01T21:00:00Z,28.3507,-96.0058,2.0,260.1803014,13.72100579,-99999.0,'11111222,11111222,99999999' 
TABS,ioos:station:wmo:42049:1,2013-06-01T21:30:00Z,28.3507,-96.0058,2.0,224.7444715,6.349881889,-99999.0,'11133222,11111222,99999999' 
TABS,ioos:station:wmo:42049:1,2013-06-01T22:00:00Z,28.3507,-96.0058,2.0,308.1155937,6.901630242,-99999.0,'11133222,11111222,99999999' 
TABS,ioos:station:wmo:42049:1,2013-06-01T22:30:00Z,28.3507,-96.0058,2.0,134.2256764,5.233067934,-99999.0,'11133222,11111222,99999999' 
TABS,ioos:station:wmo:42049:1,2013-06-01T23:00:00Z,28.3507,-96.0058,2.0,253.0615591,27.11629768,-99999.0,'11111222,11111222,99999999' 
TABS,ioos:station:wmo:42049:1,2013-06-01T23:30:00Z,28.3507,-96.0058,2.0,289.9392187,30.96620254,-99999.0,'11111222,11111222,99999999' 
TABS,ioos:station:wmo:42049:1,2013-06-02T00:00:00Z,28.3507,-96.0058,2.0,174.4637092,25.81038938,-99999.0,'11111222,11111222,99999999' 
TABS,ioos:station:wmo:42049:1,2013-06-02T00:30:00Z,28.3507,-96.0058,2.0,151.6569639,16.57724344,-99999.0,'11111222,11111222,99999999' 
TABS,ioos:station:wmo:42049:1,2013-06-02T01:00:00Z,28.3507,-96.0058,2.0,315.770184,28.94449343,-99999.0,'11111222,11111222,99999999' 
TABS,ioos:station:wmo:42049:1,2013-06-02T01:30:00Z,28.3507,-96.0058,2.0,304.6470199,13.45612872,-99999.0,'11111222,11111222,99999999' 
TABS,ioos:station:wmo:42049:1,2013-06-02T02:00:00Z,28.3507,-96.0058,2.0,286.6888319,15.25242604,-99999.0,'11111222,11111222,99999999' 
TABS,ioos:station:wmo:42049:1,2013-06-02T02:30:00Z,28.3507,-96.0058,2.0,274.3040385,36.5129525,-99999.0,'11111222,11111222,99999999' 
TABS,ioos:station:wmo:42049:1,2013-06-02T03:00:00Z,28.3507,-96.0058,2.0,291.7741804,15.42014267,-99999.0,'11111222,11111222,99999999' 
TABS,ioos:station:wmo:42049:1,2013-06-02T03:30:00Z,28.3507,-96.0058,2.0,180.4824129,16.62058964,-99999.0,'11111222,11111222,99999999' 
TABS,ioos:station:wmo:42049:1,2013-06-02T04:00:00Z,28.3507,-96.0058,2.0,295.3999631,12.75269775,-99999.0,'11111222,11111222,99999999' 
TABS,ioos:station:wmo:42049:1,2013-06-02T04:30:00Z,28.3507,-96.0058,2.0,176.8199669,14.06164997,-99999.0,'11111222,11111222,99999999' 
TABS,ioos:station:wmo:42049:1,2013-06-02T05:00:00Z,28.3507,-96.0058,2.0,357.0228103,16.17183045,-99999.0,'11111222,11111222,99999999' 
TABS,ioos:station:wmo:42049:1,2013-06-02T05:30:00Z,28.3507,-96.0058,2.0,179.8503879,15.34005215,-99999.0,'11111222,11111222,99999999' 
TABS,ioos:station:wmo:42049:1,2013-06-02T06:00:00Z,28.3507,-96.0058,2.0,294.3876588,7.532044875,-99999.0,'11133222,11111222,99999999' 
TABS,ioos:station:wmo:42049:1,2013-06-02T06:30:00Z,28.3507,-96.0058,2.0,328.4985549,12.42047503,-99999.0,'11111222,11111222,99999999' 
TABS,ioos:station:wmo:42049:1,2013-06-02T07:00:00Z,28.3507,-96.0058,2.0,284.6486026,14.98713115,-99999.0,'11111222,11111222,99999999' 
TABS,ioos:station:wmo:42049:1,2013-06-02T07:30:00Z,28.3507,-96.0058,2.0,312.6297464,34.01973692,-99999.0,'11111222,11111222,99999999' 
TABS,ioos:station:wmo:42049:1,2013-06-02T08:00:00Z,28.3507,-96.0058,2.0,340.3912546,30.09539001,-99999.0,'11111222,11111222,99999999' 
TABS,ioos:station:wmo:42049:1,2013-06-02T08:30:00Z,28.3507,-96.0058,2.0,274.7604291,13.13530357,-99999.0,'11111222,11111222,99999999' 
TABS,ioos:station:wmo:42049:1,2013-06-02T09:00:00Z,28.3507,-96.0058,2.0,296.3789397,26.10846797,-99999.0,'11111222,11111222,99999999' 
TABS,ioos:station:wmo:42049:1,2013-06-02T09:30:00Z,28.3507,-96.0058,2.0,37.95435258,19.65752019,-99999.0,'11111222,11111222,99999999' 
TABS,ioos:station:wmo:42049:1,2013-06-02T10:00:00Z,28.3507,-96.0058,2.0,261.5531149,10.75667235,-99999.0,'11111222,11111222,99999999' 
TABS,ioos:station:wmo:42049:1,2013-06-02T10:30:00Z,28.3507,-96.0058,2.0,250.991295,20.54002191,-99999.0,'11111222,11111222,99999999' 
TABS,ioos:station:wmo:42049:1,2013-06-02T11:00:00Z,28.3507,-96.0058,2.0,304.5372555,13.51119906,-99999.0,'11111222,11111222,99999999' 
TABS,ioos:station:wmo:42049:1,2013-06-02T11:30:00Z,28.3507,-96.0058,2.0,274.3949332,21.01177289,-99999.0,'11111222,11111222,99999999' 
TABS,ioos:station:wmo:42049:1,2013-06-02T12:00:00Z,28.3507,-96.0058,2.0,247.811843,61.40713069,-99999.0,'11111222,11111222,99999999' 
TABS,ioos:station:wmo:42049:1,2013-06-02T12:30:00Z,28.3507,-96.0058,2.0,301.0373169,6.710745115,-99999.0,'11133222,11111222,99999999' 
TABS,ioos:station:wmo:42049:1,2013-06-02T13:00:00Z,28.3507,-96.0058,2.0,299.7151246,4.72076265,-99999.0,'11133222,11111222,99999999' 
TABS,ioos:station:wmo:42049:1,2013-06-02T13:30:00Z,28.3507,-96.0058,2.0,284.4251904,3.934018302,-99999.0,'11133222,11111222,99999999' 
TABS,ioos:station:wmo:42049:1,2013-06-02T14:00:00Z,28.3507,-96.0058,2.0,246.7765261,3.068631617,-99999.0,'11133222,11111222,99999999' 
TABS,ioos:station:wmo:42049:1,2013-06-02T14:30:00Z,28.3507,-96.0058,2.0,218.1946746,5.967595831,-99999.0,'11133222,11111222,99999999' 
TABS,ioos:station:wmo:42049:1,2013-06-02T15:00:00Z,28.3507,-96.0058,2.0,189.4395367,16.70622638,-99999.0,'11111222,11111222,99999999' 
TABS,ioos:station:wmo:42049:1,2013-06-02T15:30:00Z,28.3507,-96.0058,2.0,201.4084194,17.06765948,-99999.0,'11111222,11111222,99999999' 
TABS,ioos:station:wmo:42049:1,2013-06-02T16:00:00Z,28.3507,-96.0058,2.0,213.831716,16.79359997,-99999.0,'11111222,11111222,99999999' 
TABS,ioos:station:wmo:42049:1,2013-06-02T16:30:00Z,28.3507,-96.0058,2.0,231.2243871,13.17328357,-99999.0,'11111222,11111222,99999999' 
TABS,ioos:station:wmo:42049:1,2013-06-02T17:00:00Z,28.3507,-96.0058,2.0,236.1899754,17.27062825,-99999.0,'11111222,11111222,99999999' 
TABS,ioos:station:wmo:42049:1,2013-06-02T17:30:00Z,28.3507,-96.0058,2.0,245.0049039,21.86801317,-99999.0,'11111222,11111222,99999999' 
TABS,ioos:station:wmo:42049:1,2013-06-02T18:00:00Z,28.3507,-96.0058,2.0,245.1917975,28.14744393,-99999.0,'11111222,11111222,99999999' 
TABS,ioos:station:wmo:42049:1,2013-06-02T18:30:00Z,28.3507,-96.0058,2.0,245.3431055,26.99089661,-99999.0,'11111222,11111222,99999999' 
TABS,ioos:station:wmo:42049:1,2013-06-02T19:00:00Z,28.3507,-96.0058,2.0,236.9833891,31.60345551,-99999.0,'11111222,11111222,99999999' 
TABS,ioos:station:wmo:42049:1,2013-06-02T19:30:00Z,28.3507,-96.0058,2.0,240.436697,34.37515964,-99999.0,'11111222,11111222,99999999' 
TABS,ioos:station:wmo:42049:1,2013-06-02T20:00:00Z,28.3507,-96.0058,2.0,242.2293368,34.01812017,-99999.0,'11111222,11111222,99999999' 
TABS,ioos:station:wmo:42049:1,2013-06-02T20:30:00Z,28.3507,-96.0058,2.0,241.8790203,33.60707068,-99999.0,'11111222,11111222,99999999' 
TABS,ioos:station:wmo:42049:1,2013-06-02T21:00:00Z,28.3507,-96.0058,2.0,242.8971792,60.07684496,-99999.0,'11111222,11111222,99999999' 
TABS,ioos:station:wmo:42049:1,2013-06-02T21:30:00Z,28.3507,-96.0058,2.0,237.6789694,55.47476904,-99999.0,'11111222,11111222,99999999' 
TABS,ioos:station:wmo:42049:1,2013-06-02T22:00:00Z,28.3507,-96.0058,2.0,234.4762341,56.08948743,-99999.0,'11111222,11111222,99999999' 
TABS,ioos:station:wmo:42049:1,2013-06-02T22:30:00Z,28.3507,-96.0058,2.0,235.7555372,53.34801215,-99999.0,'11111222,11111222,99999999' 
TABS,ioos:station:wmo:42049:1,2013-06-02T23:00:00Z,28.3507,-96.0058,2.0,243.8286641,56.56938571,-99999.0,'11111222,11111222,99999999' 
TABS,ioos:station:wmo:42049:1,2013-06-02T23:30:00Z,28.3507,-96.0058,2.0,252.4126077,66.45621792,-99999.0,'11111222,11111222,99999999' 
TABS,ioos:station:wmo:42049:1,2013-06-03T00:00:00Z,28.3507,-96.0058,2.0,258.5902161,93.77307129,-99999.0,'11111222,11111222,99999999' 
TABS,ioos:station:wmo:42049:1,2013-06-03T00:30:00Z,28.3507,-96.0058,2.0,261.343848,103.589846,-99999.0,'11111222,11111222,99999999' 
TABS,ioos:station:wmo:42049:1,2013-06-03T01:00:00Z,28.3507,-96.0058,2.0,259.1340387,101.9069698,-99999.0,'11111222,11111222,99999999' 
TABS,ioos:station:wmo:42049:1,2013-06-03T01:30:00Z,28.3507,-96.0058,2.0,263.3538708,99.19652867,-99999.0,'11111222,11111222,99999999' 
TABS,ioos:station:wmo:42049:1,2013-06-03T02:00:00Z,28.3507,-96.0058,2.0,263.3048089,91.18174434,-99999.0,'11111222,11111222,99999999' 
TABS,ioos:station:wmo:42049:1,2013-06-03T02:30:00Z,28.3507,-96.0058,2.0,271.6388731,87.08560501,-99999.0,'11111222,11111222,99999999' 
TABS,ioos:station:wmo:42049:1,2013-06-03T03:00:00Z,28.3507,-96.0058,2.0,271.8624048,80.9427384,-99999.0,'11111222,11111222,99999999' 
TABS,ioos:station:wmo:42049:1,2013-06-03T03:30:00Z,28.3507,-96.0058,2.0,268.1734003,81.90159766,-99999.0,'11111222,11111222,99999999' 
TABS,ioos:station:wmo:42049:1,2013-06-03T04:00:00Z,28.3507,-96.0058,2.0,266.9012121,78.81521173,-99999.0,'11111222,11111222,99999999' 
TABS,ioos:station:wmo:42049:1,2013-06-03T04:30:00Z,28.3507,-96.0058,2.0,263.8876636,74.0106918,-99999.0,'11111222,11111222,99999999' 
TABS,ioos:station:wmo:42049:1,2013-06-03T05:00:00Z,28.3507,-96.0058,2.0,267.458699,74.66340603,-99999.0,'11111222,11111222,99999999' 
TABS,ioos:station:wmo:42049:1,2013-06-03T05:30:00Z,28.3507,-96.0058,2.0,268.1591419,74.72854943,-99999.0,'11111222,11111222,99999999' 
TABS,ioos:station:wmo:42049:1,2013-06-03T06:00:00Z,28.3507,-96.0058,2.0,267.7389763,70.98524424,-99999.0,'11111222,11111222,99999999' 
TABS,ioos:station:wmo:42049:1,2013-06-03T06:30:00Z,28.3507,-96.0058,2.0,272.1125069,65.93479355,-99999.0,'11111222,11111222,99999999' 
TABS,ioos:station:wmo:42049:1,2013-06-03T07:00:00Z,28.3507,-96.0058,2.0,272.4119345,61.55451324,-99999.0,'11111222,11111222,99999999' 
TABS,ioos:station:wmo:42049:1,2013-06-03T07:30:00Z,28.3507,-96.0058,2.0,271.6498947,54.54260078,-99999.0,'11111222,11111222,99999999' 
TABS,ioos:station:wmo:42049:1,2013-06-03T08:00:00Z,28.3507,-96.0058,2.0,270.9242706,47.75620797,-99999.0,'11111222,11111222,99999999' 
TABS,ioos:station:wmo:42049:1,2013-06-03T08:30:00Z,28.3507,-96.0058,2.0,274.1417019,44.72678169,-99999.0,'11111222,11111222,99999999' 
TABS,ioos:station:wmo:42049:1,2013-06-03T09:00:00Z,28.3507,-96.0058,2.0,274.1657707,36.34600528,-99999.0,'11111222,11111222,99999999' 
TABS,ioos:station:wmo:42049:1,2013-06-03T09:30:00Z,28.3507,-96.0058,2.0,264.3187933,32.52976022,-99999.0,'11111222,11111222,99999999' 
TABS,ioos:station:wmo:42049:1,2013-06-03T10:00:00Z,28.3507,-96.0058,2.0,259.2713543,29.16985602,-99999.0,'11111222,11111222,99999999' 
TABS,ioos:station:wmo:42049:1,2013-06-03T10:30:00Z,28.3507,-96.0058,2.0,258.5556077,22.62990278,-99999.0,'11111222,11111222,99999999' 
TABS,ioos:station:wmo:42049:1,2013-06-03T11:00:00Z,28.3507,-96.0058,2.0,258.8196415,32.85345948,-99999.0,'11111222,11111222,99999999' 
TABS,ioos:station:wmo:42049:1,2013-06-03T11:30:00Z,28.3507,-96.0058,2.0,248.8164949,29.94325968,-99999.0,'11111222,11111222,99999999' 
TABS,ioos:station:wmo:42049:1,2013-06-03T12:00:00Z,28.3507,-96.0058,2.0,226.4839561,32.21245101,-99999.0,'11111222,11111222,99999999' 
TABS,ioos:station:wmo:42049:1,2013-06-03T12:30:00Z,28.3507,-96.0058,2.0,220.3599051,35.31550651,-99999.0,'11111222,11111222,99999999' 
TABS,ioos:station:wmo:42049:1,2013-06-03T13:00:00Z,28.3507,-96.0058,2.0,215.3916722,34.7395567,-99999.0,'11111222,11111222,99999999' 
TABS,ioos:station:wmo:42049:1,2013-06-03T13:30:00Z,28.3507,-96.0058,2.0,212.9920068,35.75585267,-99999.0,'11111222,11111222,99999999' 
TABS,ioos:station:wmo:42049:1,2013-06-03T14:00:00Z,28.3507,-96.0058,2.0,206.8124082,41.39000483,-99999.0,'11111222,11111222,99999999' 
TABS,ioos:station:wmo:42049:1,2013-06-03T14:30:00Z,28.3507,-96.0058,2.0,207.6538988,50.11486506,-99999.0,'11111222,11111222,99999999' 
TABS,ioos:station:wmo:42049:1,2013-06-03T15:00:00Z,28.3507,-96.0058,2.0,209.5549789,55.46739673,-99999.0,'11111222,11111222,99999999' 
TABS,ioos:station:wmo:42049:1,2013-06-03T15:30:00Z,28.3507,-96.0058,2.0,214.1691331,62.65557996,-99999.0,'11111222,11111222,99999999' 
TABS,ioos:station:wmo:42049:1,2013-06-03T16:00:00Z,28.3507,-96.0058,2.0,214.704781,65.75893247,-99999.0,'11111222,11111222,99999999' 
TABS,ioos:station:wmo:42049:1,2013-06-03T16:30:00Z,28.3507,-96.0058,2.0,213.329055,68.72316931,-99999.0,'11111222,11111222,99999999' 
TABS,ioos:station:wmo:42049:1,2013-06-03T17:00:00Z,28.3507,-96.0058,2.0,214.038651,69.69105108,-99999.0,'11111222,11111222,99999999' 
TABS,ioos:station:wmo:42049:1,2013-06-03T17:30:00Z,28.3507,-96.0058,2.0,217.5047252,71.99042297,-99999.0,'11111222,11111222,99999999' 
TABS,ioos:station:wmo:42049:1,2013-06-03T18:00:00Z,28.3507,-96.0058,2.0,221.6530376,72.071024,-99999.0,'11111222,11111222,99999999' 
TABS,ioos:station:wmo:42049:1,2013-06-03T18:30:00Z,28.3507,-96.0058,2.0,222.0481202,73.74299763,-99999.0,'11111222,11111222,99999999' 
TABS,ioos:station:wmo:42049:1,2013-06-03T19:00:00Z,28.3507,-96.0058,2.0,222.4385931,72.31733471,-99999.0,'11111222,11111222,99999999' 
TABS,ioos:station:wmo:42049:1,2013-06-03T19:30:00Z,28.3507,-96.0058,2.0,227.132108,71.45312449,-99999.0,'11111222,11111222,99999999' 
TABS,ioos:station:wmo:42049:1,2013-06-03T20:00:00Z,28.3507,-96.0058,2.0,229.8758547,68.4623758,-99999.0,'11111222,11111222,99999999' 
TABS,ioos:station:wmo:42049:1,2013-06-03T20:30:00Z,28.3507,-96.0058,2.0,229.240014,68.28129173,-99999.0,'11111222,11111222,99999999' 
TABS,ioos:station:wmo:42049:1,2013-06-03T21:00:00Z,28.3507,-96.0058,2.0,239.7726047,70.15901083,-99999.0,'11111222,11111222,99999999' 
TABS,ioos:station:wmo:42049:1,2013-06-03T21:30:00Z,28.3507,-96.0058,2.0,247.2764752,71.68396264,-99999.0,'11111222,11111222,99999999' 
TABS,ioos:station:wmo:42049:1,2013-06-03T22:00:00Z,28.3507,-96.0058,2.0,251.9134055,72.21827262,-99999.0,'11111222,11111222,99999999' 
TABS,ioos:station:wmo:42049:1,2013-06-03T22:30:00Z,28.3507,-96.0058,2.0,256.2591311,70.47694091,-99999.0,'11111222,11111222,99999999' 
TABS,ioos:station:wmo:42049:1,2013-06-03T23:00:00Z,28.3507,-96.0058,2.0,257.1735294,67.52485246,-99999.0,'11111222,11111222,99999999' 
TABS,ioos:station:wmo:42049:1,2013-06-03T23:30:00Z,28.3507,-96.0058,2.0,262.4506852,67.06121457,-99999.0,'11111222,11111222,99999999' 
TABS,ioos:station:wmo:42049:1,2013-06-04T00:00:00Z,28.3507,-96.0058,2.0,261.4189495,64.74469862,-99999.0,'11111222,11111222,99999999' 
TABS,ioos:station:wmo:42049:1,2013-06-04T00:30:00Z,28.3507,-96.0058,2.0,260.5680269,61.26822341,-99999.0,'11111222,11111222,99999999' 
TABS,ioos:station:wmo:42049:1,2013-06-04T01:00:00Z,28.3507,-96.0058,2.0,262.2220918,62.73711581,-99999.0,'11111222,11111222,99999999' 
TABS,ioos:station:wmo:42049:1,2013-06-04T01:30:00Z,28.3507,-96.0058,2.0,259.8742896,62.79804137,-99999.0,'11111222,11111222,99999999' 
TABS,ioos:station:wmo:42049:1,2013-06-04T02:00:00Z,28.3507,-96.0058,2.0,260.3634006,55.79727323,-99999.0,'11111222,11111222,99999999' 
TABS,ioos:station:wmo:42049:1,2013-06-04T02:30:00Z,28.3507,-96.0058,2.0,256.774802,54.28976791,-99999.0,'11111222,11111222,99999999' 
TABS,ioos:station:wmo:42049:1,2013-06-04T03:00:00Z,28.3507,-96.0058,2.0,258.5305366,52.95744424,-99999.0,'11111222,11111222,99999999' 
TABS,ioos:station:wmo:42049:1,2013-06-04T03:30:00Z,28.3507,-96.0058,2.0,263.884841,54.16818716,-99999.0,'11111222,11111222,99999999' 
TABS,ioos:station:wmo:42049:1,2013-06-04T04:00:00Z,28.3507,-96.0058,2.0,272.5062388,48.94680378,-99999.0,'11111222,11111222,99999999' 
TABS,ioos:station:wmo:42049:1,2013-06-04T04:30:00Z,28.3507,-96.0058,2.0,273.0900184,48.61065727,-99999.0,'11111222,11111222,99999999' 
TABS,ioos:station:wmo:42049:1,2013-06-04T05:00:00Z,28.3507,-96.0058,2.0,270.8258751,44.4246103,-99999.0,'11111222,11111222,99999999' 
TABS,ioos:station:wmo:42049:1,2013-06-04T05:30:00Z,28.3507,-96.0058,2.0,272.902573,42.46446279,-99999.0,'11111222,11111222,99999999' 
TABS,ioos:station:wmo:42049:1,2013-06-04T06:00:00Z,28.3507,-96.0058,2.0,280.8682076,37.86919196,-99999.0,'11111222,11111222,99999999' 
TABS,ioos:station:wmo:42049:1,2013-06-04T06:30:00Z,28.3507,-96.0058,2.0,283.5590777,34.33696114,-99999.0,'11111222,11111222,99999999' 
TABS,ioos:station:wmo:42049:1,2013-06-04T07:00:00Z,28.3507,-96.0058,2.0,277.0057177,32.05932782,-99999.0,'11111222,11111222,99999999' 
TABS,ioos:station:wmo:42049:1,2013-06-04T07:30:00Z,28.3507,-96.0058,2.0,275.1967553,27.05117558,-99999.0,'11111222,11111222,99999999' 
TABS,ioos:station:wmo:42049:1,2013-06-04T08:00:00Z,28.3507,-96.0058,2.0,268.6866397,24.87653111,-99999.0,'11111222,11111222,99999999' 
TABS,ioos:station:wmo:42049:1,2013-06-04T08:30:00Z,28.3507,-96.0058,2.0,246.3653854,20.2047049,-99999.0,'11111222,11111222,99999999' 
TABS,ioos:station:wmo:42049:1,2013-06-04T09:00:00Z,28.3507,-96.0058,2.0,241.0108243,18.61179196,-99999.0,'11111222,11111222,99999999' 
TABS,ioos:station:wmo:42049:1,2013-06-04T09:30:00Z,28.3507,-96.0058,2.0,229.7958422,13.44675797,-99999.0,'11111222,11111222,99999999' 
TABS,ioos:station:wmo:42049:1,2013-06-04T10:00:00Z,28.3507,-96.0058,2.0,217.0629799,16.5920945,-99999.0,'11111222,11111222,99999999' 
TABS,ioos:station:wmo:42049:1,2013-06-04T10:30:00Z,28.3507,-96.0058,2.0,202.6457825,18.51769424,-99999.0,'11111222,11111222,99999999' 
TABS,ioos:station:wmo:42049:1,2013-06-04T11:00:00Z,28.3507,-96.0058,2.0,198.165217,17.48126426,-99999.0,'11111222,11111222,99999999' 
TABS,ioos:station:wmo:42049:1,2013-06-04T11:30:00Z,28.3507,-96.0058,2.0,192.878537,21.1315901,-99999.0,'11111222,11111222,99999999' 
TABS,ioos:station:wmo:42049:1,2013-06-04T12:00:00Z,28.3507,-96.0058,2.0,188.5922376,22.95767628,-99999.0,'11111222,11111222,99999999' 
TABS,ioos:station:wmo:42049:1,2013-06-04T12:30:00Z,28.3507,-96.0058,2.0,183.8627634,21.81957378,-99999.0,'11111222,11111222,99999999' 
TABS,ioos:station:wmo:42049:1,2013-06-04T13:00:00Z,28.3507,-96.0058,2.0,179.4285183,24.07119648,-99999.0,'11111222,11111222,99999999' 
TABS,ioos:station:wmo:42049:1,2013-06-04T13:30:00Z,28.3507,-96.0058,2.0,177.0705779,29.54860741,-99999.0,'11111222,11111222,99999999' 
TABS,ioos:station:wmo:42049:1,2013-06-04T14:00:00Z,28.3507,-96.0058,2.0,179.2969273,30.16226948,-99999.0,'11111222,11111222,99999999' 
TABS,ioos:station:wmo:42049:1,2013-06-04T14:30:00Z,28.3507,-96.0058,2.0,182.5076081,34.0526137,-99999.0,'11111222,11111222,99999999' 
TABS,ioos:station:wmo:42049:1,2013-06-04T15:00:00Z,28.3507,-96.0058,2.0,193.1123263,36.40932847,-99999.0,'11111222,11111222,99999999' 
TABS,ioos:station:wmo:42049:1,2013-06-04T15:30:00Z,28.3507,-96.0058,2.0,206.3191772,36.51532555,-99999.0,'11111222,11111222,99999999' 
TABS,ioos:station:wmo:42049:1,2013-06-04T16:00:00Z,28.3507,-96.0058,2.0,201.8252511,39.72766416,-99999.0,'11111222,11111222,99999999' 